Cloud_Cover
0 4 14 20 5 9 18 80 75 6 36 34 37 31 43 94 99 76 90 92 60 100 87 51 65 98 97 100 100 100 100 52 5 5 10 12 5 10 13 5 6 56 100
1 7 46 41 0 0 1 5 38 76 56 27 5 5 5 17 40 34 78 98 96 99 89 70 93 79 65 7 100 100 100 100 51 19 5 20 47 5 5 5 8 40 5
2 0 23 0 0 0 0 0 0 1 7 50 28 94 99 98 100 47 56 95 100 89 94 100 55 77 100 99 34 100 100 100 100 100 10 73 8 27 5 5 5 8 74
0 0 0 0 0 0 0 0 0 0 0 0 0 54 76 12 11 6 36 48 8 96 94 100 100 87 16 98 90 72 100 100 100 100 100 87 94 5 5 8 48 72 6
0 0 0 0 0 0 0 2 4 0 0 0 0 0 0 0 11 6 18 57 65 57 58 96 100 99 97 82 96 100 100 100 100 100 100 100 100 100 63 96 94 36 43
0 0 0 0 3 13 11 48 33 0 0 0 1 0 0 0 0 0 0 0 0 13 17 55 88 100 97 100 92 87 100 100 100 100 88 100 89 100 100 100 100 98 13
0 3 3 5 10 63 100 75 35 5 6 2 0 0 0 0 0 0 0 0 0 0 0 0 48 84 100 100 100 100 73 100 100 100 100 100 100 100 100 100 100 100 30
5 5 21 8 5 16 18 36 5 14 100 100 97 28 1 0 0 0 0 0 0 0 0 0 0 3 71 100 100 99 96 97 88 100 100 100 100 100 100 100 100 100 100
46 27 10 5 3 10 98 96 29 5 100 100 100 100 100 6 0 0 0 0 0 0 0 0 0 0 2 75 100 100 98 43 11 60 100 100 100 100 100 100 100 100 100
31 5 5 5 5 5 7 83 37 51 100 100 100 100 89 1 0 5 3 2 0 0 0 0 0 0 0 0 38 100 100 100 92 11 100 100 100 100 100 100 100 100 100
98 100 38 5 5 100 100 100 100 100 100 100 100 100 100 5 19 22 16 5 5 0 0 0 0 0 0 0 1 29 100 100 100 95 68 100 100 100 100 100 100 48 100
100 100 97 83 95 98 100 100 100 100 100 100 100 100 40 5 7 5 1 5 98 21 4 0 5 0 0 0 0 3 20 84 100 100 99 100 100 100 100 100 100 100 100
100 100 100 100 100 100 100 100 100 100 100 100 24 1 2 5 2 0 5 5 24 5 0 4 83 48 0 0 0 0 4 5 87 100 92 39 94 100 97 100 100 100 100
100 100 100 100 100 100 100 100 100 100 100 29 0 4 4 4 4 0 1 0 2 0 0 6 100 97 2 0 2 2 2 19 8 96 35 5 5 66 85 52 100 100 87
93 100 100 100 100 100 100 99 77 5 11 2 31 5 4 5 3 2 5 1 0 0 9 35 99 49 4 20 85 100 93 97 23 9 68 9 5 5 14 67 69 100 48
49 100 100 100 100 96 22 3 6 29 0 8 11 10 5 5 5 0 0 0 1 1 6 0 0 2 3 8 67 100 100 100 100 100 5 13 53 5 11 8 53 68 66
87 98 100 100 57 51 34 28 6 0 0 0 5 5 5 4 5 0 0 0 11 12 0 1 0 0 26 36 100 100 100 100 94 22 6 4 5 5 42 5 41 5 5
100 1 57 100 86 68 12 54 3 0 0 4 0 3 5 3 0 0 0 20 1 0 29 0 1 67 100 96 96 100 100 100 100 99 73 2 20 5 22 17 84 12 5
32 4 99 100 48 16 37 20 0 0 1 4 4 5 0 2 5 3 34 10 0 0 6 27 51 100 100 100 100 100 93 100 96 99 94 10 21 1 5 5 5 5 4
13 100 88 89 12 25 12 2 4 1 5 5 5 4 3 0 3 6 12 8 1 52 34 80 100 100 100 100 100 100 100 100 100 99 100 97 66 6 3 5 5 4 5
100 91 2 10 27 0 0 5 4 5 79 5 0 2 0 0 1 0 6 26 57 50 73 100 100 100 100 100 100 100 100 100 100 100 100 99 96 71 6 0 0 1 4
46 22 12 14 11 0 2 5 36 27 5 5 5 0 0 5 5 0 0 0 13 98 98 100 100 100 100 100 100 100 100 100 100 100 64 60 93 100 71 16 0 0 0
100 61 1 7 0 2 7 17 34 60 14 6 1 5 0 0 0 0 0 0 86 30 100 100 100 100 100 100 100 100 100 100 100 100 100 74 98 99 98 16 46 0 0
70 5 2 5 43 91 99 41 9 6 5 1 2 5 5 5 0 0 0 0 59 47 100 100 100 100 100 100 100 100 100 100 100 100 100 100 90 43 94 20 99 0 0
77 94 97 31 93 100 100 40 8 5 5 0 5 5 4 0 0 0 0 0 26 100 100 89 100 100 100 100 100 100 100 100 100 79 100 100 100 44 4 81 88 15 0
100 100 100 43 97 100 96 56 6 5 3 1 5 50 5 1 0 0 0 0 5 100 100 100 100 100 100 100 100 100 100 100 100 98 100 100 68 12 22 13 56 2 3